{"data":{"norad_id":57141,"epoch":"2026-05-25T04:06:26.771616Z","epoch_age_seconds":56319,"freshness":"FRESH","line1":"1 57141U 23090AS  26145.17114319  .00001238  00000+0  54507-4 0  9995","line2":"2 57141  43.0000 191.1275 0001380 298.0556  62.0156 15.27580934162058","mean_motion":15.27580934,"eccentricity":0.000138,"inclination_deg":43,"raan_deg":191.1275,"arg_perigee_deg":298.0556,"mean_anomaly_deg":62.0156,"bstar":5.4507e-5,"rev_number":16205,"period_min":94.266691076677,"perigee_km":482.09945601377,"apogee_km":483.99314260438,"semimajor_km":6861.1832993091,"source":"CELESTRAK","updated_at":"2026-05-25T13:38:18.247605Z"}}